Simultaneous Nadir Overpasses (SNOs) Predictions

Prediction of SNOs between METOP-B and TERRA Satellite Orbit:

Table of predicted SNOs for the next 14.0 days since TLE Epoch: 3/9/2014
Index Date (METOP-B) Time (METOP-B) Lat,Lon (METOP-B) SZA (METOP-B ) Date (TERRA) Time (TERRA) Lat,Lon (TERRA) SZA (TERRA ) Distance(km) Time Diff (sec)
1 03/11/2014 02:14:50 -81.31, 13.87 92.39 03/11/2014 02:14:58 -81.30, 13.68 92.42 3.18 8
2 03/11/2014 03:05:31 81.31,-178.72 87.61 03/11/2014 03:04:24 81.31,-178.57 87.59 2.42 67
3 03/13/2014 20:58:34 81.30, -87.53 86.49 03/13/2014 20:59:41 81.31, -87.37 86.54 2.82 67
4 03/13/2014 21:49:13 -81.31, 80.02 93.51 03/13/2014 21:49:07 -81.31, 80.18 93.49 2.72 6
5 03/16/2014 16:32:55 81.31, -20.74 85.45 03/16/2014 16:33:49 81.31, -20.84 85.46 1.81 54
6 03/1
